Fallon NAS, NV

1:58 PM PDT on August 22, 2017 (GMT -0700)
Fallon Naval Air Station

Weather History for KNFL - February, 2014

Change the Weather History Date:

Thursday, February 6, 2014

  Actual Average Record
Temperature  
Mean Temperature 39 °F -  
Max Temperature 46 °F 47 °F 109 °F (2004)
Min Temperature 30 °F 20 °F -27 °F (1989)
Degree Days  
Heating Degree Days 26    
Moisture  
Dew Point 30 °F    
Average Humidity 82    
Maximum Humidity 96    
Minimum Humidity 58    
Precipitation  
Precipitation 0.05 in - - ()
Sea Level Pressure  
Sea Level Pressure 29.83 in    
Wind  
Wind Speed 4 mph (South)    
Max Wind Speed 8 mph    
Max Gust Speed -    
Visibility 7 miles    
Events Snow    
Averages and records for this station are not official NWS values.
T = Trace of Precipitation, MM = Missing Value Source: NWS Daily Summary

Daily Weather History Graph

Daily Weather History Graph

Search for Another Location

Airport or City:

Trip Planner

Search our weather history database for the weather conditions in past years. The results will help you decide how hot, cold, wet, or windy it might be!

Date:

Astronomy

Feb. 06, 2014 Rise Set
Actual Time 6:57 AM PST 5:21 PM PST
Civil Twilight 6:29 AM PST 5:49 PM PST
Nautical Twilight 5:57 AM PST 6:21 PM PST
Astronomical Twilight 5:25 AM PST 6:52 PM PST
Moon 10:56 AM PST (2/6) 12:17 AM PST (2/6)
Length of Visible Light 11h 20m
Length of Day
10h 24m
Waxing Crescent, 50% of the Moon is Illuminated
Feb 6
Waxing Crescent
Feb 14
Full
Feb 22
Last Quarter
Mar 1
New
Mar 8
First Quarter

Hourly Weather History & Observations

Time (PST) Temp. Windchill Dew Point Humidity Pressure Visibility Wind Dir Wind Speed Gust Speed Precip Events Conditions
12:56 AM 34.0 °F 27.2 °F 21.9 °F 61% 29.85 in 10.0 mi SSE 8.1 mph - N/A   Overcast
1:56 AM 35.1 °F - 21.9 °F 59% 29.84 in 10.0 mi Calm Calm - N/A   Overcast
2:56 AM 35.1 °F - 24.1 °F 64% 29.83 in 10.0 mi Calm Calm - N/A   Overcast
3:56 AM 35.1 °F 32.2 °F 25.0 °F 67% 29.83 in 10.0 mi South 3.5 mph - N/A   Overcast
4:56 AM 35.1 °F 30.1 °F 25.0 °F 67% 29.84 in 10.0 mi South 5.8 mph - N/A   Overcast
5:26 AM 34.0 °F 28.8 °F 28.0 °F 79% 29.91 in 2.5 mi SW 5.8 mph - 0.00 in Snow Light Snow
5:33 AM 33.1 °F 28.7 °F 28.9 °F 85% 29.91 in 1.5 mi SW 4.6 mph - 0.00 in Snow Light Snow
5:51 AM 32.0 °F 28.7 °F 30.2 °F 93% 29.91 in 1.2 mi SSW 3.5 mph - 0.00 in Snow Light Snow
5:56 AM 32.0 °F - 30.9 °F 96% 29.83 in 1.5 mi Calm Calm - 0.00 in Snow Light Snow
6:03 AM 32.0 °F - 30.9 °F 96% 29.91 in 1.5 mi Calm Calm - 0.00 in Snow Light Snow
6:10 AM 32.0 °F - 30.9 °F 96% 29.91 in 1.5 mi Calm Calm - 0.00 in Snow Light Snow
6:56 AM 32.0 °F 28.7 °F 30.0 °F 92% 29.83 in 1.5 mi SSE 3.5 mph - 0.00 in Snow Light Snow
7:07 AM 32.0 °F - 30.0 °F 92% 29.90 in 2.0 mi Calm Calm - 0.00 in Snow Light Snow
7:34 AM 32.0 °F 27.5 °F 30.9 °F 96% 29.90 in 1.0 mi SE 4.6 mph - 0.00 in Snow Light Snow
7:56 AM 32.0 °F 25.6 °F 30.9 °F 96% 29.83 in 1.0 mi SE 6.9 mph - 0.00 in Snow Light Snow
8:31 AM 32.0 °F 26.4 °F 30.9 °F 96% 29.91 in 2.0 mi SE 5.8 mph - 0.00 in Snow Light Snow
8:56 AM 32.0 °F 26.4 °F 30.9 °F 96% 29.83 in 1.5 mi SE 5.8 mph - 0.00 in Snow Light Snow
9:08 AM 33.1 °F 27.7 °F 32.0 °F 96% 29.91 in 1.5 mi SE 5.8 mph - 0.01 in Snow Light Snow
9:21 AM 33.1 °F 28.7 °F 32.0 °F 96% 29.91 in 4.0 mi SE 4.6 mph - 0.03 in Snow Light Snow
9:56 AM 35.1 °F 31.0 °F 34.0 °F 96% 29.83 in 9.0 mi South 4.6 mph - 0.05 in   Mostly Cloudy
10:37 AM 37.0 °F 32.4 °F 34.0 °F 89% 29.91 in 10.0 mi SSE 5.8 mph - N/A   Mostly Cloudy
10:56 AM 37.9 °F 33.5 °F 34.0 °F 86% 29.82 in 10.0 mi SSE 5.8 mph - N/A   Mostly Cloudy
11:56 AM 39.9 °F 36.7 °F 34.0 °F 79% 29.81 in 10.0 mi SSW 4.6 mph - N/A   Mostly Cloudy
12:56 PM 42.1 °F - 32.0 °F 67% 29.77 in 10.0 mi Calm Calm - N/A   Overcast
1:56 PM 44.1 °F 40.1 °F 33.1 °F 65% 29.74 in 10.0 mi SSE 6.9 mph - N/A   Mostly Cloudy
2:56 PM 44.1 °F - 30.9 °F 60% 29.74 in 10.0 mi Calm Calm - N/A   Overcast
3:56 PM 46.0 °F - 32.0 °F 58% 29.73 in 10.0 mi Calm Calm - N/A   Mostly Cloudy
4:56 PM 45.0 °F 40.6 °F 32.0 °F 60% 29.73 in 10.0 mi South 8.1 mph - N/A   Mostly Cloudy
5:56 PM 41.0 °F 36.4 °F 30.9 °F 67% 29.72 in 10.0 mi South 6.9 mph - N/A   Scattered Clouds
6:56 PM 39.0 °F 33.4 °F 30.9 °F 73% 29.73 in 10.0 mi South 8.1 mph - N/A   Scattered Clouds
7:56 PM 35.1 °F 29.3 °F 30.0 °F 82% 29.74 in 10.0 mi South 6.9 mph - N/A   Scattered Clouds
8:56 PM 33.1 °F 30.0 °F 30.0 °F 89% 29.75 in 10.0 mi SW 3.5 mph - N/A   Scattered Clouds
9:56 PM 32.0 °F 27.5 °F 28.9 °F 88% 29.77 in 10.0 mi SSW 4.6 mph - N/A   Scattered Clouds
10:56 PM 32.0 °F 25.6 °F 30.0 °F 92% 29.76 in 10.0 mi SSW 6.9 mph - N/A   Clear
11:56 PM 30.9 °F 24.3 °F 28.0 °F 89% 29.77 in 10.0 mi SSE 6.9 mph - N/A   Clear